Weather History for Billings, MT

Change the Weather History Date:

Saturday, December 28, 2013

  Actual Average Record
Temperature  
Mean Temperature 29 °F 26 °F  
Max Temperature 46 °F 35 °F 59 °F (1956)
Min Temperature 12 °F 17 °F -22 °F (1990)
Degree Days  
Heating Degree Days 36 39  
Month to date heating degree days 1230 1072  
Since 1 July heating degree days 2831 2700  
Cooling Degree Days 0 0  
Month to date cooling degree days 0 0  
Year to date cooling degree days 840 636  
Moisture  
Dew Point 12 °F    
Average Humidity 61    
Maximum Humidity 76    
Minimum Humidity 45    
Precipitation  
Precipitation 0.00 in 0.01 in 0.40 in (1973)
Month to date precipitation 1.89 0.45  
Year to date precipitation 16.61 13.61  
Snow  
Snow 0.00 in 0.30 in 6.60 in (1996)
Month to date snowfall 23.2 7.3  
Since 1 July snowfall 34.3 19.0  
Snow Depth T in    
Sea Level Pressure  
Sea Level Pressure 30.27 in    
Wind  
Wind Speed 11 mph (NE)    
Max Wind Speed 37 mph    
Max Gust Speed 44 mph    
Visibility 10 miles    
Events      
T = Trace of Precipitation, MM = Missing Value Source: NWS Daily Summary

Daily Weather History Graph

Daily Weather History Graph

Search for Another Location

Airport:

Trip Planner

Search our weather history database for the weather conditions in past years. The results will help you decide how hot, cold, wet, or windy it might be!

Date:

Astronomy

Dec. 28, 2013 Rise Set
Actual Time 7:54 AM MST 4:37 PM MST
Civil Twilight 7:20 AM MST 5:11 PM MST
Nautical Twilight 6:42 AM MST 5:49 PM MST
Astronomical Twilight 6:06 AM MST 6:25 PM MST
Moon 3:28 AM MST (12/28) 1:36 PM MST (12/28)
Length of Visible Light 9h 50m
Length of Day
8h 42m
Waning Crescent, 18% of the Moon is Illuminated
Dec 28
Waning Crescent
Jan 1
New
Jan 7
First Quarter
Jan 15
Full
Jan 23
Last Quarter

Hourly Weather History & Observations

Time (MST) Temp. Windchill Dew Point Humidity Pressure Visibility Wind Dir Wind Speed Gust Speed Precip Events Conditions
12:53 AM 43.0 °F 35.4 °F 24.1 °F 47% 29.81 in 10.0 mi SW 16.1 mph 23.0 mph N/A   Scattered Clouds
1:53 AM 41.0 °F 34.3 °F 25.0 °F 53% 29.83 in 10.0 mi WSW 11.5 mph - N/A   Scattered Clouds
2:53 AM 41.0 °F 32.8 °F 24.1 °F 51% 29.85 in 10.0 mi West 16.1 mph - N/A   Mostly Cloudy
3:53 AM 42.1 °F 35.2 °F 23.0 °F 47% 29.88 in 10.0 mi West 12.7 mph - N/A   Overcast
4:53 AM 45.0 °F 36.9 °F 24.1 °F 44% 29.90 in 10.0 mi NW 20.7 mph 29.9 mph N/A   Overcast
5:53 AM 37.0 °F 23.3 °F 25.0 °F 62% 29.97 in 10.0 mi NNW 36.8 mph 43.7 mph N/A   Overcast
6:53 AM 34.0 °F 23.8 °F 24.1 °F 67% 30.06 in 10.0 mi NNE 16.1 mph - N/A   Overcast
7:53 AM 30.9 °F 23.5 °F 21.0 °F 67% 30.16 in 10.0 mi North 8.1 mph - N/A   Mostly Cloudy
8:53 AM 24.1 °F 11.0 °F 12.9 °F 62% 30.25 in 10.0 mi NE 16.1 mph - N/A   Mostly Cloudy
9:53 AM 19.0 °F 4.5 °F 8.1 °F 62% 30.35 in 10.0 mi NNE 16.1 mph 25.3 mph N/A   Mostly Cloudy
10:53 AM 19.0 °F 4.0 °F 7.0 °F 59% 30.40 in 10.0 mi NE 17.3 mph - N/A   Mostly Cloudy
11:53 AM 19.9 °F 6.2 °F 6.1 °F 55% 30.41 in 10.0 mi NE 15.0 mph - N/A   Mostly Cloudy
12:53 PM 19.0 °F 8.2 °F 6.1 °F 57% 30.42 in 10.0 mi NNE 9.2 mph - N/A   Mostly Cloudy
1:53 PM 18.0 °F 11.1 °F 5.0 °F 57% 30.41 in 10.0 mi East 4.6 mph - N/A   Mostly Cloudy
2:53 PM 18.0 °F 6.9 °F 7.0 °F 62% 30.42 in 10.0 mi East 9.2 mph - N/A   Scattered Clouds
3:53 PM 17.1 °F 8.7 °F 7.0 °F 65% 30.43 in 10.0 mi ESE 5.8 mph - N/A   Scattered Clouds
4:53 PM 15.1 °F 3.3 °F 6.1 °F 68% 30.44 in 10.0 mi East 9.2 mph - N/A   Partly Cloudy
5:53 PM 14.0 °F 2.9 °F 5.0 °F 67% 30.46 in 10.0 mi East 8.1 mph - N/A   Partly Cloudy
6:53 PM 12.9 °F 5.2 °F 6.1 °F 74% 30.48 in 10.0 mi East 4.6 mph - N/A   Clear
7:53 PM 12.0 °F 1.5 °F 5.0 °F 73% 30.49 in 10.0 mi SE 6.9 mph - N/A   Scattered Clouds
8:53 PM 12.0 °F - 5.0 °F 73% 30.50 in 10.0 mi Calm Calm - N/A   Mostly Cloudy
9:53 PM 12.0 °F 5.9 °F 6.1 °F 77% 30.50 in 10.0 mi East 3.5 mph - N/A   Mostly Cloudy
10:53 PM 12.9 °F 6.9 °F 7.0 °F 77% 30.49 in 10.0 mi East 3.5 mph - N/A   Overcast
11:53 PM 12.0 °F 5.9 °F 6.1 °F 77% 30.49 in 10.0 mi ENE 3.5 mph - N/A   Overcast